Regional Weather Roundup
Issued by NWS

Home | Current Version | Previous Version | Text Only | Print | Product List | Glossary On
Versions: 1 2 3 4 5 6 7 8 9 10 11 12 13 14 15 16 17 18 19 20 21 22 23 24 25 26 27 28 29 30 31 32 33 34 35 36 37 38 39 40 41 42 43 44 45 46 47 48 49 50
000
ASUS43 KBIS 220720
RWRND

NORTH DAKOTA REGIONAL WEATHER ROUNDUP
NATIONAL WEATHER SERVICE BISMARCK ND
100 AM CST MON DEC 22 2014

NOTE: "FAIR" INDICATES FEW OR NO CLOUDS BELOW 12,000 FEET WITH NO
SIGNIFICANT WEATHER AND/OR OBSTRUCTIONS TO VISIBILITY.


NDZ001>003-009>011-017-220800-
NORTHWEST NORTH DAKOTA

CITY           SKY/WX    TMP DP  RH WIND       PRES   REMARKS
WILLISTON      CLOUDY    33  30  88 SW5       29.41R
MINOT          FOG       29  27  92 SE9       29.43F VSB 1
MINOT AFB      FRZ DRZL  29  29 100 SE10      29.43S VSB 3/4 WCI  20
$$

NDZ018>021-031>035-040>046-220800-
SOUTHWEST NORTH DAKOTA

CITY           SKY/WX    TMP DP  RH WIND       PRES   REMARKS
BISMARCK       CLOUDY    28  28 100 S6        29.45S FOG
DICKINSON      CLOUDY    37  34  89 W14       29.38S
GARRISON         N/A     29  28  96 SE9       29.42S
HETTINGER ARPT CLOUDY    37  34  89 W16G23    29.43S
$$

NDZ004>008-012>016-024-026-027-054-220800-
NORTHEAST NORTH DAKOTA

CITY           SKY/WX    TMP DP  RH WIND       PRES   REMARKS
GRAND FORKS    CLOUDY    33  32  96 SE8       29.55S
GRND FRKS AFB  CLOUDY    32  32 100 SE7       29.54S
DEVILS LAKE    CLOUDY    30  23  74 SE7       29.48F
$$

NDZ022-023-025-028>030-036>039-047>053-220800-
SOUTHEAST NORTH DAKOTA

CITY           SKY/WX    TMP DP  RH WIND       PRES   REMARKS
FARGO          CLOUDY    37  35  92 SE12      29.52F FOG
JAMESTOWN      CLOUDY    32  31  96 SE7       29.46F FOG
$$




USA.gov is the U.S. government's official web portal to all federal, state and local government web resources and services.